Weather History for KRCE - August, 2013

Change the Weather History Date:

Sunday, August 11, 2013

  Actual Average (KOKC) Record (KOKC)
Temperature  
Mean Temperature 78 °F 83 °F  
Max Temperature 89 °F 94 °F 113 °F (1936)
Min Temperature 66 °F 72 °F 58 °F (1931)
Cooling Degree Days 12 18  
Month to date cooling degree days 204  
Year to date cooling degree days 1403  
Growing Degree Days 28 (Base 50)    
Moisture  
Dew Point 70 °F    
Average Humidity 80    
Maximum Humidity 100    
Minimum Humidity 52    
Precipitation  
Precipitation 0.00 in 0.11 in 4.62 in (2008)
Month to date precipitation 1.18  
Year to date precipitation 22.79  
Sea Level Pressure  
Sea Level Pressure 30.10 in    
Wind  
Wind Speed 3 mph (ENE)    
Max Wind Speed 7 mph    
Max Gust Speed -    
T = Trace of Precipitation, MM = Missing Value Source: NWS Daily Summary

Daily Weather History Graph

Daily Weather History Graph

Search for Another Location

Airport or City:

Trip Planner

Search our weather history database for the weather conditions in past years. The results will help you decide how hot, cold, wet, or windy it might be!

Date:

Astronomy

Aug. 11, 2013 Rise Set
Actual Time 6:47 AM CDT 8:24 PM CDT
Civil Twilight 6:20 AM CDT 8:51 PM CDT
Nautical Twilight 5:47 AM CDT 9:24 PM CDT
Astronomical Twilight 5:12 AM CDT 9:59 PM CDT
Moon 11:24 AM CDT (8/11) 10:54 PM CDT (8/11)
Length of Visible Light 14h 31m
Length of Day
13h 36m
Waxing Crescent, 22% of the Moon is Illuminated
Aug 11
Waxing Crescent
Aug 14
First Quarter
Aug 20
Full
Aug 28
Last Quarter
Sep 5
New

Hourly Weather History & Observations

Time (CDT) Temp. Heat Index Dew Point Humidity Pressure Visibility Wind Dir Wind Speed Gust Speed Precip Events Conditions
12:15 AM 71.6 °F - 69.8 °F 94% 30.14 in - NE 3.5 mph - N/A   Unknown
12:35 AM 71.6 °F - 69.8 °F 94% 30.14 in - NE 3.5 mph - N/A   Unknown
12:55 AM 71.6 °F - 69.8 °F 94% 30.13 in - Calm Calm - N/A   Unknown
1:15 AM 71.6 °F - 69.8 °F 94% 30.13 in - Calm Calm - N/A   Unknown
1:35 AM 71.6 °F - 68.0 °F 88% 30.13 in - Calm Calm - N/A   Unknown
1:55 AM 68.0 °F - 68.0 °F 100% 30.13 in - Calm Calm - N/A   Unknown
2:15 AM 69.8 °F - 69.8 °F 100% 30.13 in - NNE 3.5 mph - N/A   Unknown
2:35 AM 68.0 °F - 68.0 °F 100% 30.12 in - North 4.6 mph - N/A   Unknown
2:55 AM 68.0 °F - 68.0 °F 100% 30.11 in - North 3.5 mph - N/A   Unknown
3:15 AM 68.0 °F - 68.0 °F 100% 30.11 in - North 3.5 mph - N/A   Unknown
3:35 AM 68.0 °F - 68.0 °F 100% 30.11 in - North 3.5 mph - N/A   Unknown
3:55 AM 68.0 °F - 68.0 °F 100% 30.11 in - Calm Calm - N/A   Unknown
4:15 AM 68.0 °F - 68.0 °F 100% 30.10 in - Calm Calm - N/A   Unknown
4:35 AM 68.0 °F - 68.0 °F 100% 30.10 in - NNE 3.5 mph - N/A   Unknown
4:55 AM 66.2 °F - 66.2 °F 100% 30.09 in - NNE 5.8 mph - N/A   Unknown
5:15 AM 66.2 °F - 66.2 °F 100% 30.10 in - North 4.6 mph - N/A   Unknown
5:35 AM 66.2 °F - 66.2 °F 100% 30.10 in - Calm Calm - N/A   Unknown
5:55 AM 66.2 °F - 66.2 °F 100% 30.11 in - Calm Calm - N/A   Unknown
6:15 AM 66.2 °F - 66.2 °F 100% 30.12 in - North - - N/A   Unknown
6:35 AM 66.2 °F - 66.2 °F 100% 30.11 in - North - - N/A   Unknown
6:55 AM 66.2 °F - 66.2 °F 100% 30.12 in - North - - N/A   Unknown
7:15 AM 66.2 °F - 66.2 °F 100% 30.12 in - North - - N/A   Unknown
7:35 AM 68.0 °F - 68.0 °F 100% 30.13 in - North - - N/A   Unknown
7:55 AM 68.0 °F - 68.0 °F 100% 30.13 in - North - - N/A   Unknown
8:15 AM 69.8 °F - 69.8 °F 100% 30.13 in - North - - N/A   Unknown
8:35 AM 71.6 °F - 71.6 °F 100% 30.14 in - North - - N/A   Unknown
8:55 AM 73.4 °F - 71.6 °F 94% 30.14 in - North - - N/A   Unknown
9:15 AM 75.2 °F - 71.6 °F 89% 30.15 in - North - - N/A Rain Light Rain
9:35 AM 77.0 °F - 71.6 °F 83% 30.15 in - SSE 3.5 mph - N/A   Unknown
9:55 AM 77.0 °F - 71.6 °F 83% 30.15 in - Calm Calm - N/A   Mostly Cloudy
10:15 AM 77.0 °F - 71.6 °F 83% 30.15 in - SE 3.5 mph - N/A   Mostly Cloudy
10:35 AM 78.8 °F - 69.8 °F 74% 30.15 in - SSE 4.6 mph - N/A   Scattered Clouds
10:55 AM 80.6 °F 83.9 °F 69.8 °F 70% 30.15 in - SSW 4.6 mph - N/A   Partly Cloudy
11:15 AM 80.6 °F 83.2 °F 68.0 °F 65% 30.15 in - Calm Calm - N/A   Clear
11:35 AM 82.4 °F 85.4 °F 68.0 °F 62% 30.14 in - Calm Calm - N/A   Clear
11:55 AM 82.4 °F 86.3 °F 69.8 °F 66% 30.13 in - SSE 5.8 mph - N/A   Clear
12:15 PM 82.4 °F 85.4 °F 68.0 °F 62% 30.13 in - Calm Calm - N/A   Clear
12:35 PM 82.4 °F 85.4 °F 68.0 °F 62% 30.13 in - Calm Calm - N/A   Partly Cloudy
12:55 PM 84.2 °F 87.3 °F 68.0 °F 58% 30.13 in - Calm Calm - N/A   Clear
1:15 PM 84.2 °F 87.3 °F 68.0 °F 58% 30.13 in - WNW 4.6 mph - N/A   Clear
1:35 PM 84.2 °F 87.3 °F 68.0 °F 58% 30.12 in - SW 3.5 mph - N/A   Clear
1:55 PM 86.0 °F 90.4 °F 69.8 °F 58% 30.12 in - SSW 4.6 mph - N/A   Clear
2:15 PM 86.0 °F 89.4 °F 68.0 °F 55% 30.11 in - WNW 3.5 mph - N/A   Clear
2:35 PM 86.0 °F 90.4 °F 69.8 °F 58% 30.11 in - Calm Calm - N/A Rain Light Rain
2:55 PM 86.0 °F 89.4 °F 68.0 °F 55% 30.10 in - Calm Calm - N/A   Clear
3:15 PM 86.0 °F 89.4 °F 68.0 °F 55% 30.09 in - Calm Calm - N/A   Clear
3:35 PM 87.8 °F 91.4 °F 68.0 °F 52% 30.09 in - NNW 3.5 mph - N/A   Clear
3:55 PM 89.6 °F 94.7 °F 69.8 °F 52% 30.08 in - Calm Calm - N/A   Clear
4:15 PM 87.8 °F 93.8 °F 71.6 °F 58% 30.08 in - SW 4.6 mph - N/A   Clear
4:35 PM 89.6 °F 94.7 °F 69.8 °F 52% 30.07 in - NNE 4.6 mph - N/A   Scattered Clouds
4:55 PM 89.6 °F 96.2 °F 71.6 °F 55% 30.07 in - North 3.5 mph - N/A   Partly Cloudy
5:15 PM 89.6 °F 96.2 °F 71.6 °F 55% 30.07 in - Calm Calm - N/A   Clear
5:35 PM 87.8 °F 93.8 °F 71.6 °F 58% 30.06 in - NNE 4.6 mph - N/A   Clear
5:55 PM 87.8 °F 92.6 °F 69.8 °F 55% 30.06 in - NNE 3.5 mph - N/A   Clear
6:15 PM 87.8 °F 93.8 °F 71.6 °F 58% 30.05 in - NE 5.8 mph - N/A   Clear
6:35 PM 86.0 °F 91.8 °F 71.6 °F 62% 30.04 in - Calm Calm - N/A   Clear
6:55 PM 84.2 °F 89.6 °F 71.6 °F 66% 30.04 in - ENE 3.5 mph - N/A   Clear
7:15 PM 84.2 °F 90.9 °F 73.4 °F 70% 30.04 in - East 5.8 mph - N/A   Clear
7:35 PM 82.4 °F 88.2 °F 73.4 °F 74% 30.04 in - East 4.6 mph - N/A   Clear
7:55 PM 82.4 °F 88.2 °F 73.4 °F 74% 30.04 in - East 4.6 mph - N/A Rain Light Rain
8:15 PM 82.4 °F 87.2 °F 71.6 °F 70% 30.04 in - East 4.6 mph - N/A   Clear
8:35 PM 82.4 °F 88.2 °F 73.4 °F 74% 30.05 in - East 5.8 mph - N/A   Clear
8:55 PM 80.6 °F 85.4 °F 73.4 °F 79% 30.05 in - East 5.8 mph - N/A   Clear
9:15 PM 78.8 °F - 71.6 °F 78% 30.05 in - ESE 5.8 mph - N/A   Clear
9:35 PM 78.8 °F - 73.4 °F 83% 30.06 in - SSE 4.6 mph - N/A   Clear
9:55 PM 77.0 °F - 73.4 °F 89% 30.07 in - SSE 4.6 mph - N/A   Unknown
10:15 PM 77.0 °F - 73.4 °F 89% 30.08 in - SE 6.9 mph - N/A   Unknown
10:35 PM 77.0 °F - 73.4 °F 89% 30.08 in - SSE 5.8 mph - N/A   Unknown
10:55 PM 77.0 °F - 73.4 °F 89% 30.09 in - South 5.8 mph - N/A   Unknown